Location: Newark
(40.9833°N, 0.0333°W)
Time: 16:38:28
(UTC+00:00)

DOVE 4 - Visible Passes

Search period start: 21 May 2019 00:00
Search period end: 31 May 2019 00:00
Orbit: 588 x 802 km, 97.7° (Epoch: 21 May)

Date Brightness Start Highest point End Pass type
(mag) Time Alt. Az. Time Alt. Az. Time Alt. Az.
21 May ? 02:53:33 10° NNE 02:58:43 69° ESE 03:03:17 14° S visible
22 May ? 01:57:38 10° NE 02:01:28 21° E 02:05:21 10° SE visible
22 May ? 03:34:19 10° N 03:39:18 50° WNW 03:44:24 10° SW visible
23 May ? 02:37:20 10° NNE 02:42:23 49° E 02:46:53 13° S visible
24 May ? 01:42:10 10° ENE 01:45:01 15° E 01:47:52 10° ESE visible
24 May ? 03:17:52 10° N 03:23:04 70° WNW 03:28:03 11° SSW visible
25 May ? 02:21:14 10° NNE 02:26:01 35° E 02:30:29 12° SSE visible
25 May ? 03:59:00 10° N 04:03:31 30° WNW 04:08:05 10° SW visible
26 May ? 03:01:30 10° NNE 03:06:48 84° ESE 03:11:38 13° S visible
27 May ? 02:05:18 10° NE 02:09:37 25° E 02:13:55 10° SSE visible
27 May ? 03:42:24 10° N 03:47:20 42° WNW 03:52:16 10° SW visible
28 May ? 02:45:15 10° NNE 02:50:29 60° E 02:55:11 13° S visible
29 May ? 01:49:36 10° NE 01:53:10 18° E 01:56:42 10° SE visible
29 May ? 03:25:56 10° N 03:31:07 58° WNW 03:36:17 10° SSW visible
30 May ? 02:29:06 10° NNE 02:34:08 42° E 02:38:44 12° SSE visible
